Retour au catalogue

IRIDIUM 126

ActifCommunicationsPO
NORAD 42809·PAYLOAD·🇺🇸 United States

Lancé Jun 25, 2017 depuis Vandenberg Space Force Base

Loading…

Prochains Passages (prochaines 24 heures)

TLE

FraisSource: CelesTrak SupGP

Époque: Sep 14, 2026, 21:29 UTC

1 42809C 17039G   26257.89548611 -.00000026  00000+0 -91311-5 0  2573
2 42809  86.3976 316.1672 0002350  95.3472  31.3548 14.34216814    19

Suivez IRIDIUM 126 en temps réel avec AllMySat

Download on the App Store